Regional Weather Roundup
Issued by NWS Sioux Falls, SD

Home | Current Version | Previous Version | Text Only | Print | Product List | Glossary On
Versions: 1 2 3 4 5 6 7 8 9 10 11 12 13 14 15 16 17 18 19 20 21 22 23 24 25 26 27 28 29 30 31 32 33 34 35 36 37 38 39 40 41 42 43 44 45 46 47 48 49 50
000
ASUS43 KFSD 231902
RWRFSD

WEATHER ROUNDUP FOR SE SOUTH DAKOTA/SW MINNESOTA/NW IOWA
NATIONAL WEATHER SERVICE SIOUX FALLS SD
200 PM CDT SUN APR 23 2017

NOTE: "FAIR" INDICATES FEW OR NO CLOUDS BELOW 12,000 FEET WITH NO
SIGNIFICANT WEATHER AND OR OBSTRUCTIONS TO VISIBILITY.


SDZ038>040-050-052>070-232000-
SOUTHEAST SOUTH DAKOTA

CITY           SKY/WX    TMP DP  RH WIND       PRES   REMARKS
BROOKINGS      MOSUNNY   68  32  26 S23G29    29.92
CHAMBERLAIN    CLOUDY    71  36  28 S21G29    29.84F
HURON          PTSUNNY   67  34  29 S18G28    29.87F
MADISON        FAIR      66  32  28 SW23G31   29.93F
MITCHELL       CLOUDY    70  29  21 S22G29    29.88F
SIOUX FALLS    PTSUNNY   69  39  33 S16G26    29.94F
WINNER         FAIR      69  31  24 S30G39    29.81F
YANKTON        PTSUNNY   70  32  24 S21G29    29.93F
$$

MNZ071-072-080-081-089-090-097-098-232000-
SOUTHWEST MINNESOTA

CITY           SKY/WX    TMP DP  RH WIND       PRES   REMARKS
FAIRMONT       MOSUNNY   69  27  20 S15G23    29.99F
JACKSON        CLOUDY    68  28  22 SW16G22   30.00F
MARSHALL       CLOUDY    69  34  27 SW13G24   29.94F
MONTEVIDEO     CLOUDY    66  39  37 S6        29.96F
PIPESTONE      CLOUDY    66  25  20 SW17G24   29.95F
REDWOOD FALLS  PTSUNNY   69  33  26 SW15G23   29.95F
TRACY          CLOUDY    69  35  29 S14G21    29.96F
WINDOM         CLOUDY    70  27  19 S15G21    29.97F
WORTHINGTON    MOSUNNY   68  31  25 S18G28    29.98F
$$

IAZ001>003-012>014-020>022-031-032-NEZ013-014-SDZ071-232000-
NORTHWEST IOWA

CITY           SKY/WX    TMP DP  RH WIND       PRES   REMARKS
CHEROKEE       MOSUNNY   67  34  29 SW17G25   30.00F
DENISON        SUNNY     70  32  24 SW16G22   30.05F
ESTHERVILLE    MOSUNNY   68  27  21 SW17G26   29.99F
LE MARS        CLOUDY    70  34  26 SW18G26   29.99F
ORANGE CITY    MOSUNNY   68  36  30 SW23      29.98F
SHELDON        MOSUNNY   68  28  22 S20G25    29.96F
SIOUX CITY     MOSUNNY   70  31  23 S23G29    30.00F
SPENCER        MOSUNNY   69  30  23 MISG      29.99F
STORM LAKE       N/A     68  28  22 SW16G24   30.01F
$$

ABBREVIATIONS USED IN REMARKS
   TC - TEMPERATURE IN CELSIUS
  WCI - WIND CHILL INDEX
   HX - HEAT INDEX
  VSB - VISIBILITY




USA.gov is the U.S. government's official web portal to all federal, state and local government web resources and services.